Herat, Afghanistan

9:55 PM +0430 on May 23, 2017 (GMT +0430)
Herat

Weather History for OAHR - February, 2013

Change the Weather History Date:

Wednesday, February 20, 2013

  Actual Average Record
Temperature  
Mean Temperature 52 °F -  
Max Temperature 66 °F 60 °F - ()
Min Temperature 39 °F 36 °F - ()
Degree Days  
Heating Degree Days 12    
Growing Degree Days 2 (Base 50)    
Moisture  
Dew Point 39 °F    
Average Humidity 63    
Maximum Humidity 93    
Minimum Humidity 31    
Precipitation  
Precipitation 0.00 in 0.07 in - ()
Sea Level Pressure  
Sea Level Pressure 29.99 in    
Wind  
Wind Speed 3 mph ()    
Max Wind Speed 14 mph    
Max Gust Speed 36 mph    
Visibility 3.5 miles    
Events Rain , Thunderstorm    
T = Trace of Precipitation, MM = Missing Value Source: Averaged Metar Reports

Daily Weather History Graph

Daily Weather History Graph

Search for Another Location

Airport or City:

Trip Planner

Search our weather history database for the weather conditions in past years. The results will help you decide how hot, cold, wet, or windy it might be!

Date:

Astronomy

Feb. 20, 2013 Rise Set
Actual Time 7:00 AM +0430 6:09 PM +0430
Civil Twilight 6:35 AM +0430 6:34 PM +0430
Nautical Twilight 6:06 AM +0430 7:04 PM +0430
Astronomical Twilight 5:37 AM +0430 7:33 PM +0430
Moon 1:17 PM +0430 (2/20) 2:53 AM +0430 (2/20)
Length of Visible Light 11h 59m
Length of Day
11h 08m
Waxing Gibbous, 72% of the Moon is Illuminated
Feb 20
Waxing Gibbous
Feb 26
Full
Mar 5
Last Quarter
Mar 12
New
Mar 19
First Quarter

Hourly Weather History & Observations

Time (+0430) Temp. Windchill Dew Point Humidity Pressure Visibility Wind Dir Wind Speed Gust Speed Precip Events Conditions
12:24 AM 46.4 °F - 39.2 °F 76% 30.01 in - South 2.3 mph - N/A   Clear
1:25 AM 46.4 °F 45.2 °F 39.2 °F 76% 30.01 in 6.2 mi South 3.5 mph - N/A   Unknown
2:24 AM 44.6 °F - 39.2 °F 81% 30.01 in - NNW 2.3 mph - N/A   Clear
3:25 AM 42.8 °F - 39.2 °F 87% 30.01 in - NW 1.2 mph - N/A   Clear
4:24 AM 42.8 °F - 39.2 °F 87% 30.01 in 5.0 mi WNW 1.2 mph - N/A   Unknown
5:25 AM 41.0 °F - 37.4 °F 87% 30.04 in 3.7 mi Calm Calm - N/A   Clear
6:25 AM 39.2 °F - 37.4 °F 93% 30.04 in 3.1 mi North 2.3 mph - N/A   Mist
7:25 AM 39.2 °F - 35.6 °F 87% 30.06 in 3.1 mi Calm Calm - N/A   Mist
8:25 AM 42.8 °F - 37.4 °F 81% 30.06 in 3.1 mi North 2.3 mph - N/A   Mist
9:25 AM 44.6 °F 43.1 °F 41.0 °F 87% 30.06 in 2.2 mi Variable 3.5 mph - N/A   Mist
10:05 AM 50.0 °F - 39.2 °F 66% 30.06 in 3.1 mi East 2.3 mph - N/A   Mist
10:25 AM 51.8 °F - 39.2 °F 62% 30.06 in 3.7 mi Variable 2.3 mph - N/A   Unknown
11:25 AM 57.2 °F - 39.2 °F 51% 30.06 in 4.3 mi Variable 2.3 mph - N/A   Unknown
12:25 PM 59.0 °F - 39.2 °F 48% 30.04 in 5.0 mi Variable 1.2 mph - N/A   Unknown
1:25 PM 62.6 °F - 41.0 °F 45% 29.98 in 5.0 mi Variable 3.5 mph - N/A   Unknown
2:25 PM 66.2 °F - 35.6 °F 32% 29.95 in 6.2 mi Variable 1.2 mph - N/A   Partly Cloudy
3:25 PM 66.2 °F - 35.6 °F 32% 29.92 in 6.2 mi Variable 3.5 mph - N/A   Partly Cloudy
4:25 PM 66.2 °F - 35.6 °F 32% 29.92 in 5.6 mi Variable 3.5 mph - N/A   Scattered Clouds
5:25 PM 62.6 °F - 42.8 °F 48% 29.92 in 3.7 mi WNW 4.6 mph - N/A Rain Light Rain
5:28 PM 60.8 °F - 44.6 °F 55% 29.92 in 3.7 mi Variable 3.5 mph - N/A Rain , Thunderstorm Light Thunderstorms and Rain
5:40 PM 60.8 °F - 42.8 °F 52% 29.95 in 2.5 mi WSW 6.9 mph - N/A Rain , Thunderstorm Light Rain Showers
5:44 PM 60.8 °F - 35.6 °F 39% 29.95 in 1.0 mi WSW 11.5 mph 23.0 mph N/A Rain , Thunderstorm Light Rain Showers
6:01 PM 60.8 °F - 30.2 °F 31% 29.95 in 1.6 mi West 12.7 mph 24.2 mph N/A Rain , Thunderstorm Light Thunderstorms and Rain
6:25 PM 60.8 °F - 32.0 °F 34% 29.95 in 1.2 mi WSW 13.8 mph - N/A Rain , Thunderstorm Light Thunderstorms and Rain
7:25 PM 53.6 °F - 39.2 °F 58% 29.95 in 1.2 mi NE 10.4 mph - N/A Rain , Thunderstorm Light Thunderstorms and Rain
8:25 PM 51.8 °F - 42.8 °F 71% 29.98 in 1.9 mi ENE 6.9 mph 35.7 mph N/A Rain , Thunderstorm Thunderstorms and Rain
9:25 PM 50.0 °F - 42.8 °F 76% 29.98 in 2.2 mi ENE 10.4 mph 23.0 mph N/A Thunderstorm Mostly Cloudy
10:02 PM 50.0 °F - 42.8 °F 76% 29.98 in 2.5 mi NE 10.4 mph - N/A   Mostly Cloudy
10:25 PM 50.0 °F - 42.8 °F 76% 29.98 in 3.1 mi NE 6.9 mph - N/A   Mostly Cloudy
11:25 PM 50.0 °F - 41.0 °F 71% 29.95 in - ENE 11.5 mph - N/A   Clear